Погода в Дубровно

Беларусь     54°34′19″N   30°41′24″E
темп.,
°C
ветер,
м/с
пор.,
м/с
влажн.,
%
обл.,
%
осадки,
мм/ч
давл.,
гПа
погр.,
м
27 ноября, сб
сб2700:00+1ююв41099100 0.4 1005385
03:00+1ююв51295100 0.6 1003428
06:00+1юв71395100 0.0 1000528
09:000юв71598100 0.9 997574
12:00+1юв71698100 3.6 995710
15:00+2ююв61399100 5.9 993679
18:00+3ю51199100 0.9 993410
21:00+3юз81398100 1.3 994809
28 ноября, вс
вс2800:00+2юз71397100 0.1 997773
03:00+2юз61197100 0.2 999825
06:00+1юз61190100 0.1 1000648
09:00+1юз51082100 0.1 1002619
12:00+1юз5986100 0.0 1004417
15:00+1ююз3685100 0.0 1005294
18:000ююв3589100 0.0 1005111
21:00+1вюв3798100 2.6 1004231
29 ноября, пн
пн2900:00+2вюв51195100 5.2 1002375
03:00+2юв51097100 8.3 1000307
06:00+3юв3899100 0.0 998233
09:00+4вюв4899100 0.0 996224
12:00+5вюв4999100 0.1 993264
15:00+5юв41098100 1.7 989328
18:00+5юв4899100 1.8 985246
21:00+5юв4999100 7.2 982315
30 ноября, вт
вт3000:00+4юз71297100 0.8 982576
03:00+2юз71395100 0.8 982725
06:00+1юз81388100 0.1 982787
09:00−1зюз81386100 0.1 982927
12:00−2зюз81190100 0.3 984930
15:00−2з91487100 0.7 9861154
18:00−2зсз81695100 0.8 9891372
21:00−2з101579100 1.4 9911074
1 декабря, ср
ср100:00−2з81380100 0.1 9931115
03:00−3з71284100 0.1 9951013
06:00−3з6118593 0.1 996755
09:00−4з5118994 0.1 998601
12:00−3зсз698197 0.0 1000809
15:00−3зсз48795 0.0 1000760
18:00−5з269074 0.0 1002190
21:00−5юз2593100 0.0 1002127